When you browse on this site, cookies collect data to enhance your experience and personalize the content and advertising you see.
Visit our Privacy Policy to learn more. By continuing to use the site, you agree to this use of cookies and data.
  • In Sweden
  • List of Countries
  • For 7 days
  • Water Temperature
  • Satellite Maps
  • Weather Map
  • Weather Widgets
  • user-avatar
    Login

    Hourly Weather Tinley Park

    Today, 24 May, Friday

    Time Temperature Precipitation Wind Pressure Humidity
    00:00 +18°C° 0 mm 2 mps 745 mmHg 71%
    01:00 +17°C° 0 mm 2 mps 745 mmHg 70%
    02:00 +17°C° 0 mm 2 mps 746 mmHg 69%
    03:00 +16°C° 0 mm 3 mps 746 mmHg 68%
    04:00 +16°C° 0.1 mm 3 mps 746 mmHg 70%
    05:00 +16°C° 0.1 mm 3 mps 746 mmHg 73%
    06:00 +14°C° 0.1 mm 3 mps 746 mmHg 75%
    07:00 +16°C° 0.3 mm 3 mps 746 mmHg 74%
    08:00 +17°C° 0.3 mm 3 mps 746 mmHg 73%
    09:00 +18°C° 0.3 mm 3 mps 745 mmHg 72%
    10:00 +20°C° 0 mm 3 mps 745 mmHg 69%
    11:00 +21°C° 0 mm 3 mps 745 mmHg 66%
    12:00 +24°C° 0 mm 3 mps 745 mmHg 63%
    13:00 +24°C° 0 mm 3 mps 744 mmHg 64%
    14:00 +25°C° 0 mm 3 mps 744 mmHg 65%
    15:00 +26°C° 0 mm 3 mps 743 mmHg 65%
    16:00 +26°C° 0 mm 2 mps 742 mmHg 69%
    17:00 +25°C° 0 mm 2 mps 742 mmHg 72%
    18:00 +25°C° 0 mm 2 mps 741 mmHg 76%
    19:00 +25°C° 0.1 mm 2 mps 741 mmHg 79%
    20:00 +25°C° 0.1 mm 3 mps 741 mmHg 82%
    21:00 +24°C° 0.1 mm 3 mps 741 mmHg 85%
    22:00 +24°C° 0.2 mm 3 mps 741 mmHg 85%
    23:00 +24°C° 0.2 mm 3 mps 741 mmHg 86%

    Tomorrow, 25 May, Saturday

    Time Temperature Precipitation Wind Pressure Humidity
    00:00 +24°C° 0.2 mm 3 mps 741 mmHg 86%
    01:00 +22°C° 0.7 mm 3 mps 741 mmHg 87%
    02:00 +22°C° 0.7 mm 4 mps 740 mmHg 87%
    03:00 +22°C° 0.7 mm 4 mps 740 mmHg 88%
    04:00 +22°C° 0.9 mm 4 mps 740 mmHg 87%
    05:00 +22°C° 0.9 mm 4 mps 740 mmHg 87%
    06:00 +22°C° 0.9 mm 5 mps 740 mmHg 86%
    07:00 +23°C° 0.2 mm 5 mps 741 mmHg 80%
    08:00 +26°C° 0.2 mm 6 mps 741 mmHg 74%
    09:00 +27°C° 0.2 mm 6 mps 741 mmHg 69%
    10:00 +28°C° 1.1 mm 7 mps 741 mmHg 68%
    11:00 +28°C° 1.1 mm 7 mps 741 mmHg 68%
    12:00 +29°C° 1.1 mm 7 mps 741 mmHg 67%
    13:00 +29°C° 0.5 mm 7 mps 741 mmHg 68%
    14:00 +29°C° 0.5 mm 7 mps 740 mmHg 68%
    15:00 +29°C° 0.5 mm 6 mps 740 mmHg 68%
    16:00 +28°C° 0.3 mm 6 mps 740 mmHg 71%
    17:00 +28°C° 0.3 mm 5 mps 740 mmHg 73%
    18:00 +27°C° 0.3 mm 4 mps 740 mmHg 75%
    19:00 +27°C° 0 mm 4 mps 741 mmHg 79%
    20:00 +26°C° 0 mm 4 mps 741 mmHg 82%
    21:00 +25°C° 0 mm 4 mps 741 mmHg 86%
    22:00 +25°C° 1.1 mm 3 mps 741 mmHg 87%
    23:00 +24°C° 1.1 mm 3 mps 741 mmHg 89%

    Day after tomorrow, 26 May, Sunday

    Time Temperature Precipitation Wind Pressure Humidity
    00:00 +24°C° 1.1 mm 3 mps 741 mmHg 91%
    01:00 +24°C° 0.7 mm 3 mps 741 mmHg 91%
    02:00 +22°C° 0.7 mm 3 mps 741 mmHg 92%
    03:00 +21°C° 0.7 mm 2 mps 741 mmHg 93%
    04:00 +20°C° 1.3 mm 3 mps 742 mmHg 87%
    05:00 +19°C° 1.3 mm 3 mps 742 mmHg 81%
    06:00 +18°C° 1.3 mm 3 mps 742 mmHg 75%
    07:00 +18°C° 0.2 mm 3 mps 742 mmHg 73%
    08:00 +18°C° 0.2 mm 3 mps 743 mmHg 72%
    09:00 +17°C° 0.2 mm 2 mps 743 mmHg 71%
    10:00 +17°C° 1.2 mm 3 mps 743 mmHg 72%
    11:00 +17°C° 1.2 mm 3 mps 743 mmHg 74%
    12:00 +15°C° 1.2 mm 4 mps 743 mmHg 76%
    13:00 +16°C° 4.3 mm 3 mps 743 mmHg 78%
    14:00 +14°C° 4.3 mm 3 mps 742 mmHg 80%
    15:00 +13°C° 4.3 mm 3 mps 742 mmHg 83%
    16:00 +14°C° 0 mm 3 mps 742 mmHg 77%
    17:00 +16°C° 0 mm 3 mps 743 mmHg 72%
    18:00 +16°C° 0 mm 3 mps 743 mmHg 67%
    19:00 +15°C° 0 mm 2 mps 743 mmHg 68%
    20:00 +14°C° 0 mm 2 mps 743 mmHg 69%
    21:00 +13°C° 0 mm 2 mps 744 mmHg 70%
    22:00 +13°C° 0 mm 2 mps 744 mmHg 71%
    23:00 +13°C° 0 mm 1 mps 744 mmHg 72%

    27 May, Monday

    Time Temperature Precipitation Wind Pressure Humidity
    00:00 +13°C° 0 mm 1 mps 744 mmHg 73%
    01:00 +13°C° 0 mm 1 mps 743 mmHg 74%
    02:00 +13°C° 0 mm 1 mps 743 mmHg 74%
    03:00 +13°C° 0 mm 1 mps 743 mmHg 75%
    04:00 +13°C° 0 mm 2 mps 742 mmHg 76%
    05:00 +13°C° 0 mm 2 mps 742 mmHg 78%
    06:00 +14°C° 0 mm 2 mps 742 mmHg 79%
    07:00 +16°C° 0 mm 2 mps 742 mmHg 78%
    08:00 +18°C° 0 mm 3 mps 742 mmHg 76%
    09:00 +20°C° 0 mm 3 mps 742 mmHg 75%
    10:00 +21°C° 0.1 mm 4 mps 741 mmHg 73%
    11:00 +23°C° 0.1 mm 4 mps 740 mmHg 72%
    12:00 +25°C° 0.1 mm 5 mps 740 mmHg 70%
    13:00 +23°C° 2.2 mm 4 mps 739 mmHg 74%
    14:00 +23°C° 2.2 mm 4 mps 738 mmHg 77%
    15:00 +23°C° 2.2 mm 4 mps 737 mmHg 80%
    16:00 +23°C° 0.9 mm 4 mps 737 mmHg 81%
    17:00 +23°C° 0.9 mm 4 mps 736 mmHg 82%
    18:00 +22°C° 0.9 mm 4 mps 736 mmHg 83%
    19:00 +22°C° 0.4 mm 3 mps 736 mmHg 86%
    20:00 +22°C° 0.4 mm 3 mps 736 mmHg 88%
    21:00 +21°C° 0.4 mm 2 mps 735 mmHg 90%
    22:00 +21°C° 1.1 mm 2 mps 735 mmHg 91%
    23:00 +21°C° 1.1 mm 2 mps 735 mmHg 92%

    28 May, Tuesday

    Time Temperature Precipitation Wind Pressure Humidity
    00:00 +20°C° 1.1 mm 2 mps 735 mmHg 94%
    01:00 +20°C° 0 mm 2 mps 735 mmHg 93%
    02:00 +20°C° 0 mm 3 mps 735 mmHg 93%
    03:00 +20°C° 0 mm 3 mps 734 mmHg 93%
    04:00 +21°C° 0 mm 3 mps 734 mmHg 91%
    05:00 +21°C° 0 mm 3 mps 734 mmHg 90%
    06:00 +21°C° 0 mm 3 mps 735 mmHg 88%
    07:00 +23°C° 0.1 mm 4 mps 735 mmHg 83%
    08:00 +26°C° 0.1 mm 5 mps 735 mmHg 77%
    09:00 +27°C° 0.1 mm 6 mps 735 mmHg 71%
    10:00 +29°C° 0.2 mm 6 mps 734 mmHg 66%
    11:00 +30°C° 0.2 mm 7 mps 734 mmHg 60%
    12:00 +33°C° 0.2 mm 7 mps 734 mmHg 55%
    13:00 +33°C° 0.1 mm 7 mps 734 mmHg 58%
    14:00 +33°C° 0.1 mm 7 mps 733 mmHg 61%
    15:00 +33°C° 0.1 mm 6 mps 733 mmHg 64%
    16:00 +32°C° 0 mm 6 mps 733 mmHg 66%
    17:00 +32°C° 0 mm 5 mps 733 mmHg 68%
    18:00 +32°C° 0 mm 5 mps 732 mmHg 69%
    19:00 +29°C° 0.4 mm 5 mps 733 mmHg 72%
    20:00 +28°C° 0.4 mm 6 mps 733 mmHg 75%
    21:00 +27°C° 0.4 mm 6 mps 733 mmHg 78%
    22:00 +27°C° 0.3 mm 6 mps 733 mmHg 78%
    23:00 +26°C° 0.3 mm 6 mps 732 mmHg 77%

    29 May, Wednesday

    Time Temperature Precipitation Wind Pressure Humidity
    00:00 +26°C° 0.3 mm 7 mps 732 mmHg 77%
    01:00 +24°C° 3 mm 6 mps 732 mmHg 79%
    02:00 +24°C° 3 mm 6 mps 731 mmHg 82%
    03:00 +23°C° 3 mm 5 mps 731 mmHg 84%
    04:00 +23°C° 2.4 mm 6 mps 730 mmHg 85%
    05:00 +23°C° 2.4 mm 7 mps 730 mmHg 85%
    06:00 +23°C° 2.4 mm 7 mps 730 mmHg 86%
    07:00 +24°C° 0.2 mm 8 mps 730 mmHg 78%
    08:00 +26°C° 0.2 mm 8 mps 730 mmHg 71%
    09:00 +28°C° 0.2 mm 8 mps 730 mmHg 64%
    10:00 +28°C° 0.6 mm 9 mps 729 mmHg 61%
    11:00 +28°C° 0.6 mm 10 mps 729 mmHg 58%
    12:00 +28°C° 0.6 mm 11 mps 729 mmHg 56%
    13:00 +27°C° 0.2 mm 11 mps 729 mmHg 57%
    14:00 +26°C° 0.2 mm 11 mps 729 mmHg 57%
    15:00 +24°C° 0.2 mm 11 mps 729 mmHg 58%
    16:00 +23°C° 0 mm 10 mps 730 mmHg 62%
    17:00 +22°C° 0 mm 9 mps 731 mmHg 66%
    18:00 +22°C° 0 mm 8 mps 731 mmHg 70%
    19:00 +21°C° 0.1 mm 7 mps 732 mmHg 72%
    20:00 +20°C° 0.1 mm 6 mps 733 mmHg 73%
    21:00 +19°C° 0.1 mm 6 mps 733 mmHg 74%
    22:00 +17°C° 0 mm 5 mps 734 mmHg 74%
    23:00 +17°C° 0 mm 5 mps 734 mmHg 73%
    Show more